Location: ??
(35.4032°N, 139.3073°E)
Time: 03:43:44
(UTC+00:00)

CZ-2D R/B - Pass Details

Date: 13 April 2024
Orbit: 791 x 842 km, 98.8° (Epoch: 25 May)

Event Time Altitude Azimuth Distance (km) Brightness Sun altitude
Rises 16:33:25 0° 14° (NNE) 3,347 6.1 -38.2°
Reaches altitude 10° 16:35:46 10° 15° (NNE) 2,419 5.2 -37.9°
Enters shadow 16:38:10 28° 17° (NNE) 1,512 3.9 -37.6°
